Tracking 35331 objects as of 15-Sep-2026
HD Live streaming from Space Station
objects crossing your sky now

NOAA 16 DEB


NOAA 16 DEB is no longer on orbit


NORAD ID: 41506
Int'l Code: 2000-055ME
Launch date: September 21, 2000
Source: United States (US)
Launch site: AIR FORCE WESTERN TEST RANGE (AFWTR)
Decay date: 2024-12-17

Note: This is SATELLITE DEBRIS
Your satellite tracking list
Your tracking list is empty




NASA's NSSDC Master Catalog

Two Line Element Set (TLE):
1 41506U 00055ME  24345.94807123  .02626243  00000-0  31204-1 0  9994
2 41506  98.7340 157.3790 0020798 349.6669  10.4152 15.57703864466083
Source of the keplerian elements: AFSPC